When you browse on this site, cookies collect data to enhance your experience and personalize the content and advertising you see.
Visit our Privacy Policy to learn more. By continuing to use the site, you agree to this use of cookies and data.
  • In Switzerland
  • List of Countries
  • For 7 days
  • Water Temperature
  • Satellite Maps
  • Weather Map
  • Weather Widgets
  • user-avatar
    Login

    Hourly Weather Huckelhoven

    Today, 18 July, Thursday

    Time Temperature Precipitation Wind Pressure Humidity
    00:00 +18°C° 0 mm 1 mps 755 mmHg 70%
    01:00 +18°C° 0 mm 1 mps 755 mmHg 71%
    02:00 +16°C° 0 mm 1 mps 754 mmHg 72%
    03:00 +16°C° 0 mm 2 mps 754 mmHg 73%
    04:00 +17°C° 0 mm 2 mps 754 mmHg 72%
    05:00 +18°C° 0 mm 2 mps 754 mmHg 71%
    06:00 +19°C° 0 mm 2 mps 754 mmHg 69%
    07:00 +20°C° 0 mm 2 mps 754 mmHg 64%
    08:00 +23°C° 0 mm 2 mps 754 mmHg 59%
    09:00 +25°C° 0 mm 3 mps 754 mmHg 54%
    10:00 +25°C° 0 mm 3 mps 754 mmHg 53%
    11:00 +25°C° 0 mm 4 mps 754 mmHg 52%
    12:00 +26°C° 0 mm 4 mps 754 mmHg 51%
    13:00 +25°C° 0 mm 4 mps 754 mmHg 53%
    14:00 +23°C° 0 mm 4 mps 754 mmHg 56%
    15:00 +23°C° 0 mm 4 mps 754 mmHg 59%
    16:00 +22°C° 0 mm 3 mps 754 mmHg 61%
    17:00 +22°C° 0 mm 3 mps 754 mmHg 63%
    18:00 +21°C° 0 mm 2 mps 754 mmHg 66%
    19:00 +20°C° 0 mm 2 mps 754 mmHg 69%
    20:00 +19°C° 0 mm 2 mps 755 mmHg 72%
    21:00 +19°C° 0 mm 1 mps 755 mmHg 76%
    22:00 +19°C° 0 mm 1 mps 755 mmHg 77%
    23:00 +18°C° 0 mm 2 mps 755 mmHg 79%

    Tomorrow, 19 July, Friday

    Time Temperature Precipitation Wind Pressure Humidity
    00:00 +18°C° 0 mm 2 mps 755 mmHg 80%
    01:00 +17°C° 0 mm 2 mps 755 mmHg 84%
    02:00 +17°C° 0 mm 2 mps 755 mmHg 88%
    03:00 +16°C° 0 mm 2 mps 755 mmHg 91%
    04:00 +17°C° 0 mm 2 mps 755 mmHg 88%
    05:00 +18°C° 0 mm 3 mps 755 mmHg 84%
    06:00 +18°C° 0 mm 3 mps 755 mmHg 80%
    07:00 +20°C° 0 mm 3 mps 756 mmHg 74%
    08:00 +21°C° 0 mm 3 mps 756 mmHg 67%
    09:00 +23°C° 0 mm 4 mps 756 mmHg 61%
    10:00 +25°C° 0 mm 4 mps 756 mmHg 56%
    11:00 +26°C° 0 mm 4 mps 756 mmHg 52%
    12:00 +26°C° 0 mm 4 mps 756 mmHg 47%
    13:00 +26°C° 0 mm 4 mps 755 mmHg 47%
    14:00 +26°C° 0 mm 4 mps 755 mmHg 47%
    15:00 +26°C° 0 mm 4 mps 755 mmHg 48%
    16:00 +26°C° 0 mm 3 mps 755 mmHg 52%
    17:00 +25°C° 0 mm 2 mps 756 mmHg 56%
    18:00 +25°C° 0 mm 2 mps 756 mmHg 60%
    19:00 +23°C° 0 mm 2 mps 756 mmHg 63%
    20:00 +21°C° 0 mm 2 mps 756 mmHg 66%
    21:00 +19°C° 0 mm 2 mps 756 mmHg 69%
    22:00 +18°C° 0 mm 2 mps 756 mmHg 70%
    23:00 +18°C° 0 mm 2 mps 756 mmHg 72%

    Day after tomorrow, 20 July, Saturday

    Time Temperature Precipitation Wind Pressure Humidity
    00:00 +17°C° 0 mm 2 mps 756 mmHg 74%
    01:00 +17°C° 0 mm 2 mps 756 mmHg 74%
    02:00 +17°C° 0 mm 2 mps 755 mmHg 75%
    03:00 +16°C° 0 mm 2 mps 755 mmHg 75%
    04:00 +18°C° 0 mm 2 mps 755 mmHg 74%
    05:00 +19°C° 0 mm 3 mps 755 mmHg 74%
    06:00 +20°C° 0 mm 3 mps 755 mmHg 73%
    07:00 +22°C° 0.1 mm 4 mps 755 mmHg 69%
    08:00 +23°C° 0.1 mm 5 mps 755 mmHg 65%
    09:00 +26°C° 0.1 mm 6 mps 755 mmHg 61%
    10:00 +27°C° 0.4 mm 5 mps 755 mmHg 58%
    11:00 +27°C° 0.4 mm 5 mps 755 mmHg 56%
    12:00 +28°C° 0.4 mm 4 mps 755 mmHg 54%
    13:00 +28°C° 1.2 mm 4 mps 755 mmHg 57%
    14:00 +27°C° 1.2 mm 5 mps 755 mmHg 61%
    15:00 +27°C° 1.2 mm 5 mps 754 mmHg 65%
    16:00 +26°C° 1.2 mm 4 mps 755 mmHg 70%
    17:00 +25°C° 1.2 mm 4 mps 755 mmHg 75%
    18:00 +23°C° 1.2 mm 4 mps 755 mmHg 80%
    19:00 +22°C° 0.3 mm 3 mps 755 mmHg 83%
    20:00 +21°C° 0.3 mm 3 mps 756 mmHg 85%
    21:00 +20°C° 0.3 mm 3 mps 756 mmHg 88%
    22:00 +19°C° 0.1 mm 3 mps 757 mmHg 89%
    23:00 +18°C° 0.1 mm 3 mps 757 mmHg 90%

    21 July, Sunday

    Time Temperature Precipitation Wind Pressure Humidity
    00:00 +18°C° 0.1 mm 4 mps 757 mmHg 91%
    01:00 +17°C° 0 mm 4 mps 757 mmHg 91%
    02:00 +16°C° 0 mm 3 mps 757 mmHg 90%
    03:00 +16°C° 0 mm 3 mps 758 mmHg 90%
    04:00 +15°C° 0 mm 4 mps 758 mmHg 88%
    05:00 +17°C° 0 mm 4 mps 759 mmHg 87%
    06:00 +18°C° 0 mm 4 mps 759 mmHg 85%
    07:00 +19°C° 0 mm 4 mps 759 mmHg 80%
    08:00 +20°C° 0 mm 5 mps 760 mmHg 75%
    09:00 +22°C° 0 mm 5 mps 760 mmHg 70%
    10:00 +23°C° 0 mm 5 mps 761 mmHg 68%
    11:00 +23°C° 0 mm 5 mps 761 mmHg 67%
    12:00 +25°C° 0 mm 5 mps 761 mmHg 65%
    13:00 +25°C° 0 mm 4 mps 761 mmHg 63%
    14:00 +25°C° 0 mm 4 mps 761 mmHg 62%
    15:00 +26°C° 0 mm 4 mps 761 mmHg 60%
    16:00 +25°C° 0 mm 3 mps 761 mmHg 63%
    17:00 +25°C° 0 mm 2 mps 762 mmHg 65%
    18:00 +24°C° 0 mm 2 mps 762 mmHg 68%
    19:00 +23°C° 0 mm 2 mps 762 mmHg 73%
    20:00 +20°C° 0 mm 2 mps 762 mmHg 78%
    21:00 +18°C° 0 mm 2 mps 763 mmHg 84%
    22:00 +19°C° 0 mm 1 mps 763 mmHg 85%
    23:00 +18°C° 0 mm 1 mps 763 mmHg 87%

    22 July, Monday

    Time Temperature Precipitation Wind Pressure Humidity
    00:00 +18°C° 0 mm 1 mps 763 mmHg 89%
    01:00 +18°C° 0 mm 1 mps 763 mmHg 90%
    02:00 +16°C° 0 mm 1 mps 763 mmHg 90%
    03:00 +16°C° 0 mm 1 mps 763 mmHg 91%
    04:00 +18°C° 0 mm 1 mps 763 mmHg 88%
    05:00 +19°C° 0 mm 1 mps 763 mmHg 85%
    06:00 +20°C° 0 mm 1 mps 763 mmHg 82%
    07:00 +22°C° 0 mm 1 mps 763 mmHg 75%
    08:00 +24°C° 0 mm 2 mps 762 mmHg 68%
    09:00 +26°C° 0 mm 2 mps 762 mmHg 61%
    10:00 +27°C° 0 mm 2 mps 762 mmHg 56%
    11:00 +28°C° 0 mm 2 mps 762 mmHg 51%
    12:00 +29°C° 0 mm 2 mps 761 mmHg 46%
    13:00 +30°C° 0 mm 2 mps 761 mmHg 44%
    14:00 +30°C° 0 mm 2 mps 761 mmHg 42%
    15:00 +31°C° 0 mm 2 mps 760 mmHg 40%
    16:00 +30°C° 0 mm 2 mps 760 mmHg 44%
    17:00 +29°C° 0 mm 2 mps 760 mmHg 48%
    18:00 +28°C° 0 mm 2 mps 760 mmHg 52%
    19:00 +27°C° 0 mm 2 mps 760 mmHg 56%
    20:00 +25°C° 0 mm 2 mps 761 mmHg 60%
    21:00 +23°C° 0 mm 2 mps 761 mmHg 65%
    22:00 +23°C° 0 mm 2 mps 761 mmHg 65%
    23:00 +21°C° 0 mm 2 mps 760 mmHg 66%

    23 July, Tuesday

    Time Temperature Precipitation Wind Pressure Humidity
    00:00 +21°C° 0 mm 2 mps 760 mmHg 67%
    01:00 +20°C° 0 mm 2 mps 760 mmHg 69%
    02:00 +20°C° 0 mm 2 mps 760 mmHg 71%
    03:00 +20°C° 0 mm 3 mps 759 mmHg 72%
    04:00 +21°C° 0 mm 3 mps 759 mmHg 71%
    05:00 +22°C° 0 mm 3 mps 759 mmHg 70%
    06:00 +24°C° 0 mm 3 mps 759 mmHg 69%
    07:00 +26°C° 0 mm 3 mps 759 mmHg 63%
    08:00 +28°C° 0 mm 3 mps 759 mmHg 57%
    09:00 +30°C° 0 mm 3 mps 759 mmHg 51%
    10:00 +31°C° 0 mm 3 mps 759 mmHg 46%
    11:00 +33°C° 0 mm 3 mps 758 mmHg 41%
    12:00 +34°C° 0 mm 4 mps 758 mmHg 37%
    13:00 +35°C° 0 mm 3 mps 758 mmHg 35%
    14:00 +35°C° 0 mm 3 mps 757 mmHg 34%
    15:00 +36°C° 0 mm 3 mps 757 mmHg 33%
    16:00 +35°C° 0 mm 2 mps 757 mmHg 37%
    17:00 +34°C° 0 mm 2 mps 757 mmHg 41%
    18:00 +32°C° 0 mm 2 mps 757 mmHg 45%
    19:00 +30°C° 0 mm 2 mps 757 mmHg 48%
    20:00 +28°C° 0 mm 2 mps 757 mmHg 50%
    21:00 +26°C° 0 mm 3 mps 757 mmHg 52%
    22:00 +26°C° 0 mm 3 mps 757 mmHg 56%
    23:00 +25°C° 0 mm 3 mps 757 mmHg 59%
    Show more